Location: Unspecified
(51.2961°N, 0.0000°E)
Time: 02:41:42
(UTC+00:00)

YUNHAI 2 2 - Visible Passes

Search period start: 04 April 2026 00:00
Search period end: 14 April 2026 00:00
Orbit: 792 x 799 km, 50.0° (Epoch: 29 March)

Date Brightness Start Highest point End Pass type
(mag) Time Alt. Az. Time Alt. Az. Time Alt. Az.
4 Apr ? 20:21:26 10° WSW 20:26:58 77° S 20:30:30 23° E visible
4 Apr ? 22:06:48 10° W 22:11:17 56° WSW 22:11:17 56° WSW visible
5 Apr ? 19:50:51 10° WSW 19:56:22 75° S 20:01:15 14° E visible
5 Apr ? 21:36:12 10° W 21:41:43 72° SSW 21:42:01 70° SSE visible
5 Apr ? 23:21:42 10° W 23:22:47 15° W 23:22:47 15° W visible
6 Apr ? 19:20:15 10° WSW 19:25:46 73° SSE 19:31:18 10° E visible
6 Apr ? 21:05:35 10° W 21:11:07 74° S 21:12:43 47° ESE visible
6 Apr ? 22:51:04 10° W 22:53:29 24° W 22:53:29 24° W visible
7 Apr ? 20:35:00 10° W 20:40:31 76° S 20:43:23 29° ESE visible
7 Apr ? 22:20:26 10° W 22:24:09 35° WSW 22:24:09 35° WSW visible
8 Apr ? 20:04:22 10° W 20:09:55 78° S 20:14:03 18° ESE visible
8 Apr ? 21:49:48 10° W 21:54:49 46° SW 21:54:49 46° SW visible
9 Apr ? 19:33:46 10° W 19:39:19 79° S 19:44:43 11° E visible
9 Apr ? 21:19:11 10° W 21:24:31 50° SSW 21:25:29 45° S visible
9 Apr ? 23:05:23 10° W 23:06:15 13° WSW 23:06:15 13° WSW visible
10 Apr ? 20:48:34 10° W 20:53:57 54° SSW 20:56:10 33° SE visible
10 Apr ? 22:34:35 10° W 22:36:56 18° WSW 22:36:56 18° WSW visible
11 Apr ? 20:17:57 10° W 20:23:22 57° SSW 20:26:52 22° SE visible
11 Apr ? 22:03:49 10° W 22:07:37 23° SW 22:07:37 23° SW visible
12 Apr ? 19:47:21 10° W 19:52:48 61° SSW 19:57:35 14° ESE visible
12 Apr ? 21:33:07 10° W 21:37:34 25° SW 21:38:21 25° SSW visible
13 Apr ? 19:16:45 10° W 19:22:13 64° SSW 19:27:41 10° ESE visible
13 Apr ? 21:02:24 10° W 21:07:03 28° SW 21:09:06 22° S visible
